Location: Ferintosh
(52.7647°N, 112.9692°W)
Time: 22:31:23
(UTC+00:00)

A-11 Canister half - Pass Details

Date: 26 May 2024
Orbit: 1524 x 1683 km, 47.3° (Epoch: 19 June)

Event Time Altitude Azimuth Distance (km) Brightness Sun altitude
Rises 09:43:52 0° 285° (WNW) 4,764 11.4 -10.4°
Reaches altitude 10° 09:47:15 10° 277° (W) 3,800 10.8 -10.1°
Maximum altitude 09:55:37 35° 216° (SW) 2,413 9.5 -9.4°
Drops below altitude 10° 10:04:12 10° 156° (SSE) 3,896 10.8 -8.7°
Sets 10:07:44 0° 148° (SSE) 4,898 11.4 -8.4°
